Date String (YYYY-MM-DD hh:mm:ss) UTC,Instrument flags,Ambient pressure (hPa),Sample flow (lpm),Bypass flow (lpm),Sample temperature (°C),Ambient temperature (°C),ASC tube jacket temperature (°C),LED temperature (°C),Box temperature (°C),Sample RH (%),Span deviation,Mass concentration (μg/m³),Mass concentration (μg/m³),Mass concentration (μg/m³)
DateTimeUTC,F1_M11,P_M11,Q1_M11,Q2_M11,T1_M11,T2_M11,T3_M11,T4_M11,T5_M11,U1_M11,ZSPAN_M11,X0_M11,X2_M11,X1_M11
2023-02-17 08:00:00,,0827.9,5.00,0.00,22.5,20.6,00.0,31.4,24.1,06.1,0000.0,0005.67,0003.11,0002.47
2023-02-17 08:01:00,,0827.9,4.99,0.00,22.4,20.5,00.0,31.3,24.0,06.3,0000.0,0005.65,0003.08,0002.43
2023-02-17 08:02:00,,0827.9,5.02,0.00,22.4,21.4,00.0,31.3,24.2,06.4,0000.0,0006.15,0003.08,0002.42
2023-02-17 08:03:00,,0827.9,4.98,0.00,22.6,22.5,00.0,31.2,24.4,06.4,0000.0,0005.65,0003.07,0002.41
2023-02-17 08:04:00,,0827.9,5.04,0.00,22.7,23.3,00.0,31.2,24.7,06.4,0000.0,0005.68,0003.07,0002.40
2023-02-17 08:05:00,,0827.9,4.98,0.00,22.7,23.1,00.0,31.3,24.7,06.4,0000.0,0005.84,0003.03,0002.38
2023-02-17 08:06:00,,0827.9,5.03,0.00,22.7,22.5,00.0,31.4,24.5,06.4,0000.0,0005.91,0003.00,0002.35
2023-02-17 08:07:00,,0827.8,5.01,0.00,22.7,21.9,00.0,31.4,24.4,06.5,0000.0,0005.83,0002.97,0002.32
2023-02-17 08:08:00,,0827.8,4.99,0.00,22.7,21.4,00.0,31.4,24.3,06.5,0000.0,0005.83,0002.98,0002.29
2023-02-17 08:09:00,,0827.8,5.00,0.00,22.6,21.0,00.0,31.4,24.2,06.4,0000.0,0006.09,0002.92,0002.27
2023-02-17 08:10:00,,0827.8,4.95,0.00,22.6,20.8,00.0,31.4,24.2,06.2,0000.0,0006.48,0002.89,0002.26
2023-02-17 08:11:00,,0827.8,5.03,0.00,22.5,20.7,00.0,31.4,24.1,06.1,0000.0,0006.29,0002.81,0002.23
2023-02-17 08:12:00,,0827.8,5.01,0.00,22.5,20.5,00.0,31.4,24.0,06.2,0000.0,0006.28,0002.79,0002.20
2023-02-17 08:13:00,,0827.8,5.00,0.00,22.4,20.3,00.0,31.4,23.9,06.3,0000.0,0006.10,0002.78,0002.17
2023-02-17 08:14:00,,0827.8,5.01,0.00,22.4,20.9,00.0,31.3,24.1,06.2,0000.0,0005.89,0002.82,0002.16
2023-02-17 08:15:00,,0827.9,5.00,0.00,22.5,22.2,00.0,31.3,24.4,06.2,0000.0,0005.94,0002.83,0002.14
2023-02-17 08:16:00,,0827.9,5.03,0.00,22.6,23.0,00.0,31.3,24.6,06.2,0000.0,0005.66,0002.79,0002.10
2023-02-17 08:17:00,,0827.8,5.01,0.00,22.7,22.7,00.0,31.3,24.6,06.1,0000.0,0005.67,0002.78,0002.07
2023-02-17 08:18:00,,0827.8,5.01,0.00,22.7,22.1,00.0,31.4,24.4,06.1,0000.0,0005.66,0002.76,0002.05
2023-02-17 08:19:00,,0827.7,5.02,0.00,22.6,21.5,00.0,31.4,24.3,06.1,0000.0,0005.49,0002.64,0002.00
2023-02-17 08:20:00,,0827.8,5.00,0.00,22.6,21.1,00.0,31.4,24.1,06.2,0000.0,0005.05,0002.63,0001.97
2023-02-17 08:21:00,,0827.7,5.00,0.00,22.5,20.8,00.0,31.4,24.1,06.1,0000.0,0004.62,0002.62,0001.95
2023-02-17 08:22:00,,0827.7,5.02,0.00,22.5,20.6,00.0,31.4,24.1,06.1,0000.0,0004.60,0002.61,0001.95
2023-02-17 08:23:00,,0827.7,5.00,0.00,22.4,20.5,00.0,31.4,24.0,06.1,0000.0,0004.63,0002.62,0001.97
2023-02-17 08:24:00,,0827.7,5.01,0.00,22.4,20.4,00.0,31.4,24.0,06.1,0000.0,0004.59,0002.65,0001.98
2023-02-17 08:25:00,,0827.7,5.02,0.00,22.5,21.5,00.0,31.3,24.2,06.0,0000.0,0004.06,0002.62,0001.98
2023-02-17 08:26:00,,0827.7,5.03,0.00,22.6,22.6,00.0,31.3,24.5,06.0,0000.0,0003.85,0002.54,0001.96
2023-02-17 08:27:00,,0827.7,5.07,0.00,22.7,23.0,00.0,31.3,24.6,06.0,0000.0,0003.73,0002.50,0001.95
2023-02-17 08:28:00,,0827.6,5.01,0.00,22.7,22.5,00.0,31.3,24.5,06.0,0000.0,0003.63,0002.45,0001.93
2023-02-17 08:29:00,,0827.6,4.98,0.00,22.7,22.0,00.0,31.4,24.4,06.0,0000.0,0003.57,0002.40,0001.91
2023-02-17 08:30:00,,0827.6,5.02,0.00,22.6,21.6,00.0,31.4,24.3,05.9,0000.0,0003.59,0002.41,0001.92
2023-02-17 08:31:00,,0827.5,5.00,0.00,22.6,21.2,00.0,31.4,24.2,06.0,0000.0,0003.83,0002.39,0001.92
2023-02-17 08:32:00,,0827.5,5.00,0.00,22.5,20.9,00.0,31.4,24.1,06.0,0000.0,0004.65,0002.39,0001.94
2023-02-17 08:33:00,,0827.5,5.02,0.00,22.5,20.7,00.0,31.4,24.1,06.0,0000.0,0004.80,0002.43,0001.94
2023-02-17 08:34:00,,0827.6,4.99,0.00,22.5,20.6,00.0,31.4,24.1,06.0,0000.0,0004.83,0002.44,0001.93
2023-02-17 08:35:00,,0827.6,4.98,0.00,22.4,20.5,00.0,31.4,24.1,06.1,0000.0,0004.87,0002.43,0001.91
2023-02-17 08:36:00,,0827.5,5.02,0.00,22.4,21.2,00.0,31.3,24.2,06.1,0000.0,0004.86,0002.41,0001.91
2023-02-17 08:37:00,,0827.5,4.95,0.00,22.5,22.4,00.0,31.3,24.4,06.1,0000.0,0004.90,0002.41,0001.91
2023-02-17 08:38:00,,0827.5,5.06,0.00,22.7,23.0,00.0,31.3,24.6,06.2,0000.0,0005.05,0002.44,0001.90
2023-02-17 08:39:00,,0827.5,4.97,0.00,22.7,22.6,00.0,31.3,24.5,06.2,0000.0,0005.01,0002.44,0001.88
2023-02-17 08:40:00,,0827.5,5.01,0.00,22.7,22.0,00.0,31.4,24.4,06.3,0000.0,0004.94,0002.45,0001.88
2023-02-17 08:41:00,,0827.5,4.98,0.00,22.6,21.5,00.0,31.4,24.3,06.4,0000.0,0004.95,0002.45,0001.86
2023-02-17 08:42:00,,0827.5,4.99,0.00,22.6,21.0,00.0,31.4,24.1,06.5,0000.0,0004.87,0002.38,0001.83
2023-02-17 08:43:00,,0827.5,5.01,0.00,22.5,20.7,00.0,31.4,24.1,06.5,0000.0,0003.94,0002.31,0001.78
2023-02-17 08:44:00,,0827.5,4.99,0.00,22.5,20.5,00.0,31.4,24.0,06.5,0000.0,0003.60,0002.27,0001.75
2023-02-17 08:45:00,,0827.5,4.99,0.00,22.4,20.4,00.0,31.4,23.9,06.6,0000.0,0003.40,0002.18,0001.70
2023-02-17 08:46:00,,0827.5,5.01,0.00,22.4,20.4,00.0,31.3,23.9,06.7,0000.0,0003.25,0002.11,0001.66
2023-02-17 08:47:00,,0827.5,5.02,0.00,22.4,21.6,00.0,31.3,24.2,06.6,0000.0,0003.21,0002.06,0001.61
2023-02-17 08:48:00,,0827.5,5.01,0.00,22.6,22.6,00.0,31.2,24.4,06.6,0000.0,0003.16,0002.00,0001.56
2023-02-17 08:49:00,,0827.5,5.08,0.00,22.7,23.2,00.0,31.3,24.6,06.5,0000.0,0003.20,0001.97,0001.53
2023-02-17 08:50:00,,0827.5,4.99,0.00,22.7,22.9,00.0,31.3,24.6,06.4,0000.0,0003.35,0001.96,0001.53
2023-02-17 08:51:00,,0827.5,4.97,0.00,22.7,22.3,00.0,31.4,24.5,06.5,0000.0,0003.34,0001.94,0001.51
2023-02-17 08:52:00,,0827.4,4.99,0.00,22.7,21.7,00.0,31.4,24.3,06.4,0000.0,0003.21,0001.89,0001.49
2023-02-17 08:53:00,,0827.4,5.00,0.00,22.6,21.3,00.0,31.4,24.2,06.3,0000.0,0003.28,0001.93,0001.51
2023-02-17 08:54:00,,0827.4,5.02,0.00,22.6,21.0,00.0,31.4,24.2,06.3,0000.0,0003.31,0001.97,0001.52
2023-02-17 08:55:00,,0827.4,5.00,0.00,22.5,20.8,00.0,31.4,24.1,06.3,0000.0,0003.32,0001.98,0001.52
2023-02-17 08:56:00,,0827.4,5.01,0.00,22.5,20.7,00.0,31.4,24.1,06.2,0000.0,0003.48,0002.06,0001.54
2023-02-17 08:57:00,,0827.4,5.04,0.00,22.4,20.6,00.0,31.4,24.1,06.1,0000.0,0003.44,0002.10,0001.57
2023-02-17 08:58:00,,0827.4,4.95,0.00,22.4,20.5,00.0,31.4,24.0,06.1,0000.0,0003.49,0002.10,0001.61
2023-02-17 08:59:00,,0827.5,4.97,0.00,22.4,21.3,00.0,31.3,24.2,06.1,0000.0,0003.73,0002.17,0001.63
